SR1WXW Weather Reports


time (UTC)temp
C
wind
direction
speed
KPH
gust
KPH
rain 1hr
cm
rain 24hr
cm
rain mn
cm
humidity
%
barometer
mb
20260502163311 22 180 6.4 8.0 0.00 0.00 0.00 33 1012.1
20260502162811 22 202 6.4 9.7 0.00 0.00 0.00 33 1012.1
20260502162311 22 157 8.0 9.7 0.00 0.00 0.00 33 1012.1
20260502161811 22 157 3.2 6.4 0.00 0.00 0.00 34 1012.1
20260502161311 22 202 4.8 8.0 0.00 0.00 0.00 33 1012.3
20260502160811 22 202 6.4 9.7 0.00 0.00 0.00 33 1012.3
20260502160311 22 225 9.7 12.9 0.00 0.00 0.00 34 1012.4
20260502152311 23 180 9.7 12.9 0.00 0.00 0.00 33 1013.1
20260502151811 23 270 0.0 8.0 0.00 0.00 0.00 33 1013.0
20260502151311 23 225 4.8 82.1 0.00 0.00 0.00 33 1013.1
20260502150811 23 225 82.1 82.1 0.00 0.00 0.00 32 1013.2
20260502150311 23 180 3.2 14.5 0.00 0.00 0.00 32 1013.2
20260502130311 23 157 4.8 4.8 0.00 0.00 0.00 34 1014.8
20260502123811 23 202 0.0 9.7 0.00 0.00 0.00 34 1015.2
20260502123311 23 225 9.7 9.7 0.00 0.00 0.00 34 1015.2
20260502122811 23 202 8.0 11.3 0.00 0.00 0.00 35 1015.4
20260502122312 23 225 6.4 6.4 0.00 0.00 0.00 36 1015.4
20260502121811 23 225 0.0 8.0 0.00 0.00 0.00 35 1015.6
20260502121312 23 180 4.8 9.7 0.00 0.00 0.00 35 1015.5
20260502120812 23 202 0.0 9.7 0.00 0.00 0.00 34 1015.7
20260502120312 23 202 9.7 9.7 0.00 0.00 0.00 34 1015.8
20260502115812 23 202 3.2 14.5 0.00 0.00 0.00 33 1015.9
20260502115312 23 180 12.9 12.9 0.00 0.00 0.00 35 1015.8
20260502114812 23 157 8.0 8.0 0.00 0.00 0.00 35 1015.9
20260502114312 23 202 4.8 8.0 0.00 0.00 0.00 35 1015.9
20260502113812 23 202 4.8 11.3 0.00 0.00 0.00 33 1015.9
20260502113312 23 247 1.6 9.7 0.00 0.00 0.00 35 1016.2
20260502112812 23 247 3.2 17.7 0.00 0.00 0.00 34 1016.2
20260502112312 23 180 12.9 12.9 0.00 0.00 0.00 34 1016.2
20260502111812 22 202 8.0 11.3 0.00 0.00 0.00 34 1016.3
20260502111312 22 180 8.0 9.7 0.00 0.00 0.00 35 1016.4
20260502110812 22 135 3.2 14.5 0.00 0.00 0.00 35 1016.4
20260502110312 22 135 9.7 16.1 0.00 0.00 0.00 35 1016.6
20260502105812 22 157 6.4 9.7 0.00 0.00 0.00 36 1016.6
20260502105312 22 157 4.8 9.7 0.00 0.00 0.00 37 1016.8
20260502104812 22 202 6.4 8.0 0.00 0.00 0.00 37 1016.9
20260502104312 22 202 4.8 12.9 0.00 0.00 0.00 37 1016.9
20260502103812 22 180 1.6 9.7 0.00 0.00 0.00 35 1016.7
20260502103312 22 180 4.8 14.5 0.00 0.00 0.00 36 1016.9
20260502102812 21 202 3.2 6.4 0.00 0.00 0.00 36 1016.9
20260502102312 21 202 4.8 12.9 0.00 0.00 0.00 36 1017.0
20260502101812 21 157 12.9 12.9 0.00 0.00 0.00 37 1017.1
20260502101312 21 157 6.4 14.5 0.00 0.00 0.00 38 1017.0
20260502100812 21 202 9.7 9.7 0.00 0.00 0.00 37 1017.2
20260502100312 21 202 6.4 6.4 0.00 0.00 0.00 39 1017.4
20260502091312 20 225 3.2 8.0 0.00 0.00 0.00 38 1017.8
20260502090812 20 180 3.2 11.3 0.00 0.00 0.00 37 1017.9
20260502090312 20 180 4.8 9.7 0.00 0.00 0.00 38 1018.0
20260502071312 19 180 6.4 11.3 0.00 0.00 0.00 44 1018.7
20260502070812 18 180 3.2 6.4 0.00 0.00 0.00 45 1018.7
20260502070312 18 157 4.8 8.0 0.00 0.00 0.00 50 1018.6
20260502065812 17 202 6.4 6.4 0.00 0.00 0.00 53 1018.6
20260502065312 15 202 6.4 6.4 0.00 0.00 0.00 54 1018.8
20260502064812 15 202 4.8 6.4 0.00 0.00 0.00 57 1018.7
20260502064312 13 202 3.2 6.4 0.00 0.00 0.00 58 1018.8
20260502063812 13 135 3.2 4.8 0.00 0.00 0.00 60 1018.9
20260502063312 12 180 3.2 6.4 0.00 0.00 0.00 60 1018.9
20260502062812 12 180 4.8 6.4 0.00 0.00 0.00 61 1018.8
20260502062312 12 180 3.2 8.0 0.00 0.00 0.00 61 1018.9
20260502061812 11 180 4.8 9.7 0.00 0.00 0.00 62 1018.9
20260502061312 11 180 3.2 8.0 0.00 0.00 0.00 63 1019.0
20260502060812 11 180 4.8 8.0 0.00 0.00 0.00 64 1018.9
20260502060312 11 157 8.0 8.0 0.00 0.00 0.00 66 1019.0
20260502055812 10 202 3.2 6.4 0.00 0.00 0.00 67 1019.1
20260502055312 10 157 6.4 6.4 0.00 0.00 0.00 69 1019.0
20260502054812 10 202 4.8 8.0 0.00 0.00 0.00 69 1019.1
20260502054312 10 157 6.4 6.4 0.00 0.00 0.00 69 1019.0
20260502053812 10 202 3.2 8.0 0.00 0.00 0.00 70 1019.0
20260502053312 9 157 3.2 4.8 0.00 0.00 0.00 70 1018.9
20260502052812 9 180 3.2 6.4 0.00 0.00 0.00 71 1019.0
20260502052312 9 180 3.2 8.0 0.00 0.00 0.00 72 1019.0
20260502051812 8 202 6.4 6.4 0.00 0.00 0.00 73 1019.0
20260502051312 8 180 4.8 8.0 0.00 0.00 0.00 74 1019.0
20260502050812 7 157 8.0 8.0 0.00 0.00 0.00 76 1019.0
20260502050312 7 157 6.4 8.0 0.00 0.00 0.00 77 1019.2
20260502045812 6 157 4.8 8.0 0.00 0.00 0.00 78 1019.1
20260502045312 6 157 3.2 6.4 0.00 0.00 0.00 79 1019.1
20260502044812 6 202 4.8 4.8 0.00 0.00 0.00 78 1019.0
20260502044312 6 157 3.2 6.4 0.00 0.00 0.00 79 1019.0
20260502043813 6 202 3.2 6.4 0.00 0.00 0.00 79 1019.0
20260502043313 5 180 3.2 4.8 0.00 0.00 0.00 79 1019.1
20260502042813 5 180 4.8 4.8 0.00 0.00 0.00 78 1019.0
20260502042313 5 180 3.2 3.2 0.00 0.00 0.00 78 1019.1
20260502041813 5 180 1.6 3.2 0.00 0.00 0.00 78 1019.1
20260502041313 5 180 1.6 4.8 0.00 0.00 0.00 78 1019.0
20260502040813 5 157 4.8 6.4 0.00 0.00 0.00 78 1019.0
20260502040313 5 157 4.8 6.4 0.00 0.00 0.00 78 1019.0
20260502035813 5 180 4.8 8.0 0.00 0.00 0.00 78 1019.0
20260502035313 5 180 4.8 6.4 0.00 0.00 0.00 79 1019.0
20260502034813 5 157 4.8 6.4 0.00 0.00 0.00 79 1019.0
20260502034313 5 157 4.8 6.4 0.00 0.00 0.00 80 1018.9
20260502033813 5 157 4.8 6.4 0.00 0.00 0.00 80 1019.1
20260502033313 5 157 4.8 6.4 0.00 0.00 0.00 81 1019.1
20260502032813 5 157 4.8 4.8 0.00 0.00 0.00 81 1019.1
20260502032313 5 180 3.2 3.2 0.00 0.00 0.00 81 1019.3
20260502031813 5 180 3.2 3.2 0.00 0.00 0.00 81 1019.3
20260502031313 5 180 3.2 3.2 0.00 0.00 0.00 80 1019.2
20260502030813 5 180 3.2 3.2 0.00 0.00 0.00 80 1019.3
20260502030313 5 202 3.2 3.2 0.00 0.00 0.00 80 1019.5
20260502025813 5 180 0.0 1.6 0.00 0.00 0.00 79 1019.4
20260502025313 5 180 1.6 3.2 0.00 0.00 0.00 80 1019.3
20260502024813 5 180 1.6 3.2 0.00 0.00 0.00 79 1019.2
20260502024313 5 180 3.2 4.8 0.00 0.00 0.00 79 1019.3
20260502023813 5 202 4.8 4.8 0.00 0.00 0.00 79 1019.4
20260502023313 5 180 3.2 4.8 0.00 0.00 0.00 79 1019.5
20260502022813 5 180 3.2 4.8 0.00 0.00 0.00 78 1019.4
20260502022313 5 180 3.2 3.2 0.00 0.00 0.00 78 1019.2
20260502021813 5 202 0.0 3.2 0.00 0.00 0.00 78 1019.5
20260502021313 5 157 0.0 0.0 0.00 0.00 0.00 78 1019.5
20260502020813 5 180 0.0 0.0 0.00 0.00 0.00 77 1019.3
20260502020313 5 180 0.0 1.6 0.00 0.00 0.00 77 1019.3
20260502015813 6 157 0.0 1.6 0.00 0.00 0.00 76 1019.5
20260502015313 6 157 0.0 1.6 0.00 0.00 0.00 75 1019.3
20260502014813 6 157 0.0 1.6 0.00 0.00 0.00 74 1019.3
20260502014313 6 157 0.0 3.2 0.00 0.00 0.00 73 1019.5
20260502013813 6 157 1.6 3.2 0.00 0.00 0.00 72 1019.5
20260502013313 6 157 1.6 3.2 0.00 0.00 0.00 71 1019.5
20260502012813 6 157 0.0 3.2 0.00 0.00 0.00 71 1019.4
20260502012313 6 180 1.6 3.2 0.00 0.00 0.00 70 1019.6
20260502011813 6 157 3.2 3.2 0.00 0.00 0.00 70 1019.7
20260502011313 6 157 3.2 3.2 0.00 0.00 0.00 70 1019.6
20260502010813 7 157 1.6 3.2 0.00 0.00 0.00 69 1019.8
20260502010313 7 157 1.6 3.2 0.00 0.00 0.00 69 1019.7
20260502005814 7 157 1.6 3.2 0.00 0.00 0.00 70 1019.7
20260502005313 7 157 3.2 4.8 0.00 0.00 0.00 70 1019.7
20260502004813 7 180 3.2 4.8 0.00 0.00 0.00 71 1019.6
20260502004313 7 157 3.2 6.4 0.00 0.00 0.00 71 1019.6
20260502003813 7 180 0.0 0.0 0.00 0.00 0.00 73 1019.6
20260502003313 7 157 0.0 0.0 0.00 0.00 0.00 73 1019.7
20260502002813 7 180 0.0 0.0 0.00 0.00 0.00 72 1019.7
20260502002313 7 157 0.0 0.0 0.00 0.00 0.00 72 1019.7
20260502001813 7 157 0.0 0.0 0.00 0.00 0.00 71 1019.9
20260502001313 7 157 0.0 0.0 0.00 0.00 0.00 71 1019.8
20260502000813 7 157 0.0 0.0 0.00 0.00 0.00 71 1019.8
20260502000313 7 157 0.0 0.0 0.00 0.00 0.00 70 1020.0
20260501235813 7 157 0.0 0.0 0.00 0.00 0.00 70 1019.9
20260501235313 7 157 0.0 0.0 0.00 0.00 0.00 69 1019.9
20260501234813 7 135 0.0 0.0 0.00 0.00 0.00 68 1019.9
20260501234313 8 135 0.0 0.0 0.00 0.00 0.00 67 1020.1
20260501233813 8 135 0.0 0.0 0.00 0.00 0.00 66 1019.9
20260501233313 8 135 0.0 0.0 0.00 0.00 0.00 64 1020.1
20260501232813 8 157 0.0 0.0 0.00 0.00 0.00 61 1020.1
20260501232313 8 157 0.0 0.0 0.00 0.00 0.00 59 1020.1
20260501231813 8 180 0.0 0.0 0.00 0.00 0.00 59 1020.1
20260501231313 8 180 0.0 0.0 0.00 0.00 0.00 59 1020.0
20260501230813 8 180 0.0 0.0 0.00 0.00 0.00 59 1020.1
20260501230313 8 180 0.0 0.0 0.00 0.00 0.00 59 1020.1
20260501225813 8 180 0.0 0.0 0.00 0.00 0.00 59 1020.1
20260501225313 8 180 0.0 0.0 0.00 0.00 0.00 59 1020.0
20260501224813 8 180 0.0 0.0 0.00 0.00 0.00 57 1020.1
20260501224313 9 180 0.0 0.0 0.00 0.00 0.00 56 1020.0
20260501223813 9 180 0.0 0.0 0.00 0.00 0.00 56 1020.1
20260501223313 9 180 0.0 0.0 0.00 0.00 0.00 56 1020.1
20260501222813 9 180 0.0 0.0 0.00 0.00 0.00 54 1020.1
20260501222313 9 180 0.0 0.0 0.00 0.00 0.00 52 1020.1
20260501221813 10 180 0.0 0.0 0.00 0.00 0.00 52 1020.1
20260501221313 10 247 0.0 0.0 0.00 0.00 0.00 51 1020.0
20260501220813 10 247 0.0 0.0 0.00 0.00 0.00 51 1020.2
20260501220313 10 180 0.0 0.0 0.00 0.00 0.00 51 1020.1
20260501215813 10 180 0.0 0.0 0.00 0.00 0.00 50 1020.2
20260501215313 10 180 0.0 0.0 0.00 0.00 0.00 50 1020.1
20260501214813 10 157 0.0 0.0 0.00 0.00 0.00 50 1020.0
20260501214313 10 157 0.0 0.0 0.00 0.00 0.00 50 1020.1
20260501213813 10 157 0.0 0.0 0.00 0.00 0.00 49 1020.1
20260501213313 10 157 0.0 0.0 0.00 0.00 0.00 49 1020.1
20260501212814 10 157 0.0 0.0 0.00 0.00 0.00 49 1020.0
20260501212313 10 157 0.0 0.0 0.00 0.00 0.00 48 1020.1
20260501211813 10 157 0.0 0.0 0.00 0.00 0.00 48 1020.1
20260501211314 10 157 0.0 0.0 0.00 0.00 0.00 49 1020.1
20260501210814 10 157 0.0 0.0 0.00 0.00 0.00 49 1020.2
20260501210314 11 135 0.0 0.0 0.00 0.00 0.00 48 1020.3
20260501205814 11 135 0.0 0.0 0.00 0.00 0.00 47 1020.2
20260501205314 11 180 0.0 0.0 0.00 0.00 0.00 47 1020.2
20260501204814 11 180 0.0 0.0 0.00 0.00 0.00 47 1020.3
20260501204314 11 180 0.0 0.0 0.00 0.00 0.00 47 1020.5
20260501203814 11 180 0.0 0.0 0.00 0.00 0.00 46 1020.3
20260501203314 11 157 0.0 0.0 0.00 0.00 0.00 46 1020.4
20260501202814 11 270 0.0 0.0 0.00 0.00 0.00 45 1020.4
20260501202314 11 292 0.0 0.0 0.00 0.00 0.00 45 1020.3
20260501201814 11 292 0.0 0.0 0.00 0.00 0.00 44 1020.6
20260501201314 12 292 0.0 0.0 0.00 0.00 0.00 44 1020.6
20260501200814 12 292 0.0 0.0 0.00 0.00 0.00 44 1020.7
20260501200314 12 292 0.0 0.0 0.00 0.00 0.00 44 1020.6
20260501195814 12 315 0.0 0.0 0.00 0.00 0.00 44 1020.6
20260501195314 12 315 0.0 0.0 0.00 0.00 0.00 43 1020.7
20260501194814 12 315 0.0 0.0 0.00 0.00 0.00 43 1020.8
20260501194314 12 292 0.0 0.0 0.00 0.00 0.00 42 1020.7
20260501193814 12 292 0.0 0.0 0.00 0.00 0.00 42 1020.7
20260501193314 13 292 0.0 0.0 0.00 0.00 0.00 42 1020.7
20260501192814 13 292 0.0 0.0 0.00 0.00 0.00 42 1020.7
20260501192314 13 292 0.0 0.0 0.00 0.00 0.00 42 1020.7
20260501191814 13 315 0.0 0.0 0.00 0.00 0.00 42 1020.7
20260501191314 13 292 0.0 0.0 0.00 0.00 0.00 41 1020.8
20260501190814 13 292 0.0 0.0 0.00 0.00 0.00 41 1020.8
20260501190314 14 292 0.0 0.0 0.00 0.00 0.00 40 1020.7
20260501185814 14 292 0.0 0.0 0.00 0.00 0.00 41 1020.8
20260501185314 14 292 0.0 1.6 0.00 0.00 0.00 40 1020.8
20260501184814 14 292 1.6 3.2 0.00 0.00 0.00 40 1020.8
20260501184314 15 292 1.6 3.2 0.00 0.00 0.00 40 1020.7
20260501183814 15 292 3.2 3.2 0.00 0.00 0.00 40 1020.8
20260501183314 15 270 0.0 3.2 0.00 0.00 0.00 39 1020.8
20260501182814 15 292 1.6 3.2 0.00 0.00 0.00 39 1020.7
20260501182314 15 270 0.0 3.2 0.00 0.00 0.00 39 1020.7
20260501181814 15 270 0.0 3.2 0.00 0.00 0.00 38 1020.7
20260501181314 16 270 0.0 3.2 0.00 0.00 0.00 38 1020.6
20260501180814 16 292 3.2 3.2 0.00 0.00 0.00 38 1020.6
20260501180314 16 270 1.6 4.8 0.00 0.00 0.00 37 1020.6
20260501175814 16 315 4.8 4.8 0.00 0.00 0.00 37 1020.7
20260501175314 17 292 1.6 6.4 0.00 0.00 0.00 37 1020.6
20260501174814 17 292 1.6 6.4 0.00 0.00 0.00 37 1020.5
20260501174314 17 292 3.2 3.2 0.00 0.00 0.00 37 1020.5
20260501173814 17 270 0.0 4.8 0.00 0.00 0.00 37 1020.4
20260501173314 17 270 1.6 8.0 0.00 0.00 0.00 36 1020.5
20260501172814 17 270 3.2 4.8 0.00 0.00 0.00 36 1020.4
20260501172314 18 270 3.2 6.4 0.00 0.00 0.00 36 1020.4
20260501171814 18 292 6.4 6.4 0.00 0.00 0.00 36 1020.6
20260501171315 18 292 6.4 8.0 0.00 0.00 0.00 36 1020.6
20260501170814 18 270 3.2 8.0 0.00 0.00 0.00 37 1020.5
20260501170314 18 270 3.2 8.0 0.00 0.00 0.00 37 1020.5
20260501165814 18 292 3.2 6.4 0.00 0.00 0.00 37 1020.5
20260501165314 18 315 4.8 4.8 0.00 0.00 0.00 37 1020.5
20260501164814 19 270 1.6 6.4 0.00 0.00 0.00 36 1020.6
20260501164314 19 270 3.2 9.7 0.00 0.00 0.00 36 1020.5
20260501163814 19 270 3.2 8.0 0.00 0.00 0.00 36 1020.6